"Sample Date","Sample Time","Sample Value","Units","Flow Rate","Sample Interval","Number Channels","Micron Size 0","Counts/Channel 0","Micron Size 1","Counts/Channel 1","Micron Size 2","Counts/Channel 2","Micron Size 3","Counts/Channel 3","Micron Size 4","Counts/Channel 4","Micron Size 5","Counts/Channel 5","Micron Size 6","Counts/Channel 6","Micron Size 7","Counts/Channel 7","Micron Size 8","Counts/Channel 8","Micron Size 9","Counts/Channel 9","Micron Size 10","Counts/Channel 10","Micron Size 11","Counts/Channel 11","Micron Size 12","Counts/Channel 12","Micron Size 13","Counts/Channel 13","Micron Size 14","Counts/Channel 14","Micron Size 15","Counts/Channel 15","Micron Size 16","Counts/Channel 16","Micron Size 17","Counts/Channel 17","Micron Size 18","Counts/Channel 18","Micron Size 19","Counts/Channel 19","Micron Size 20","Counts/Channel 20","Micron Size 21","Counts/Channel 21","Micron Size 22","Counts/Channel 22","Micron Size 23","Counts/Channel 23","Micron Size 24","Counts/Channel 24","Micron Size 25","Counts/Channel 25","Micron Size 26","Counts/Channel 26","Micron Size 27","Counts/Channel 27","Micron Size 28","Counts/Channel 28","Micron Size 29","Counts/Channel 29","Micron Size 30","Counts/Channel 30","Micron Size 31","Counts/Channel 31"
"04/09/08","01:00:01",12507.000,"cc",28342.742,6.00,6,0.100,7188.000,0.200,1649.000,0.300,1392.000,0.500,1639.000,1.000,639.000,5.000,0
"04/09/08","01:00:07",12784.000,"cc",28242.127,6.00,6,0.100,7349.000,0.200,1706.000,0.300,1435.000,0.500,1677.000,1.000,617.000,5.000,0
"04/09/08","01:00:13",12750.000,"cc",28253.934,6.00,6,0.100,7232.000,0.200,1729.000,0.300,1413.000,0.500,1711.000,1.000,665.000,5.000,0
"04/09/08","01:00:19",13268.000,"cc",28345.000,6.00,6,0.100,7528.000,0.200,1841.000,0.300,1519.000,0.500,1701.000,1.000,679.000,5.000,0
"04/09/08","01:00:25",12684.000,"cc",28264.850,6.00,6,0.100,7326.000,0.200,1710.000,0.300,1417.000,0.500,1601.000,1.000,630.000,5.000,0
"04/09/08","01:00:31",12389.000,"cc",28331.678,6.00,6,0.100,7022.000,0.200,1701.000,0.300,1456.000,0.500,1597.000,1.000,613.000,5.000,0
"04/09/08","01:00:37",12718.000,"cc",28315.010,6.00,6,0.100,7262.000,0.200,1787.000,0.300,1392.000,0.500,1606.000,1.000,671.000,5.000,0
"04/09/08","01:00:43",12682.000,"cc",28509.481,6.00,6,0.100,7334.000,0.200,1677.000,0.300,1469.000,0.500,1597.000,1.000,605.000,5.000,0
"04/09/08","01:00:49",12879.000,"cc",28228.275,6.00,6,0.100,7305.000,0.200,1744.000,0.300,1442.000,0.500,1694.000,1.000,694.000,5.000,0
"04/09/08","01:00:55",13634.000,"cc",28151.074,6.00,6,0.100,7547.000,0.200,1910.000,0.300,1573.000,0.500,1846.000,1.000,757.000,5.000,1.000
"04/09/08","01:01:01",13212.000,"cc",28259.424,6.00,6,0.100,7519.000,0.200,1780.000,0.300,1496.000,0.500,1719.000,1.000,698.000,5.000,0
"04/09/08","01:01:07",12645.000,"cc",28244.850,6.00,6,0.100,7260.000,0.200,1734.000,0.300,1394.000,0.500,1654.000,1.000,603.000,5.000,0
"04/09/08","01:01:13",12969.000,"cc",28336.402,6.00,6,0.100,7285.000,0.200,1790.000,0.300,1502.000,0.500,1738.000,1.000,654.000,5.000,0
"04/09/08","01:01:19",12925.000,"cc",28343.348,6.00,6,0.100,7375.000,0.200,1787.000,0.300,1429.000,0.500,1651.000,1.000,683.000,5.000,0
"04/09/08","01:01:25",13001.000,"cc",28346.902,6.00,6,0.100,7403.000,0.200,1733.000,0.300,1514.000,0.500,1696.000,1.000,655.000,5.000,0
"04/09/08","01:01:31",13187.000,"cc",28382.188,6.00,6,0.100,7634.000,0.200,1703.000,0.300,1477.000,0.500,1692.000,1.000,681.000,5.000,0
"04/09/08","01:01:37",12705.000,"cc",28283.475,6.00,6,0.100,7295.000,0.200,1729.000,0.300,1416.000,0.500,1648.000,1.000,617.000,5.000,0
"04/09/08","01:01:43",12862.000,"cc",28236.201,6.00,6,0.100,7309.000,0.200,1722.000,0.300,1484.000,0.500,1700.000,1.000,646.000,5.000,1.000
"04/09/08","01:01:49",13029.000,"cc",28366.654,6.00,6,0.100,7408.000,0.200,1758.000,0.300,1477.000,0.500,1685.000,1.000,701.000,5.000,0
"04/09/08","01:01:55",12736.000,"cc",28295.318,6.00,6,0.100,7293.000,0.200,1700.000,0.300,1473.000,0.500,1616.000,1.000,654.000,5.000,0
"04/09/08","01:02:01",12878.000,"cc",28380.770,6.00,6,0.100,7328.000,0.200,1767.000,0.300,1437.000,0.500,1694.000,1.000,652.000,5.000,0
"04/09/08","01:02:07",12521.000,"cc",28282.371,6.00,6,0.100,7133.000,0.200,1725.000,0.300,1462.000,0.500,1547.000,1.000,654.000,5.000,0
"04/09/08","01:02:13",12754.000,"cc",28262.797,6.00,6,0.100,7257.000,0.200,1833.000,0.300,1430.000,0.500,1606.000,1.000,628.000,5.000,0
"04/09/08","01:02:19",12934.000,"cc",28280.934,6.00,6,0.100,7323.000,0.200,1705.000,0.300,1516.000,0.500,1713.000,1.000,677.000,5.000,0
"04/09/08","01:02:25",12721.000,"cc",28388.965,6.00,6,0.100,7364.000,0.200,1703.000,0.300,1395.000,0.500,1652.000,1.000,607.000,5.000,0
"04/09/08","01:02:31",12599.000,"cc",28410.502,6.00,6,0.100,7264.000,0.200,1690.000,0.300,1405.000,0.500,1631.000,1.000,609.000,5.000,0
"04/09/08","01:02:37",12545.000,"cc",28257.162,6.00,6,0.100,7046.000,0.200,1804.000,0.300,1469.000,0.500,1603.000,1.000,623.000,5.000,0
"04/09/08","01:02:43",12991.000,"cc",28274.102,6.00,6,0.100,7501.000,0.200,1748.000,0.300,1410.000,0.500,1658.000,1.000,674.000,5.000,0
"04/09/08","01:02:49",13483.000,"cc",28296.775,6.00,6,0.100,7655.000,0.200,1849.000,0.300,1560.000,0.500,1733.000,1.000,686.000,5.000,0
"04/09/08","01:02:55",13130.000,"cc",28228.672,6.00,6,0.100,7293.000,0.200,1846.000,0.300,1519.000,0.500,1750.000,1.000,722.000,5.000,0
"04/09/08","01:03:01",12763.000,"cc",28424.584,6.00,6,0.100,7269.000,0.200,1787.000,0.300,1485.000,0.500,1623.000,1.000,599.000,5.000,0
"04/09/08","01:03:07",12720.000,"cc",28404.731,6.00,6,0.100,7310.000,0.200,1687.000,0.300,1422.000,0.500,1643.000,1.000,658.000,5.000,0
"04/09/08","01:03:13",12916.000,"cc",28318.514,6.00,6,0.100,7460.000,0.200,1738.000,0.300,1466.000,0.500,1668.000,1.000,584.000,5.000,0
"04/09/08","01:03:19",12429.000,"cc",28241.715,6.00,6,0.100,7051.000,0.200,1735.000,0.300,1367.000,0.500,1618.000,1.000,658.000,5.000,0
"04/09/08","01:03:25",12344.000,"cc",28295.106,6.00,6,0.100,7122.000,0.200,1611.000,0.300,1368.000,0.500,1630.000,1.000,613.000,5.000,0
"04/09/08","01:03:31",12604.000,"cc",28420.420,6.00,6,0.100,7297.000,0.200,1655.000,0.300,1379.000,0.500,1628.000,1.000,645.000,5.000,0
"04/09/08","01:03:37",12754.000,"cc",28335.512,6.00,6,0.100,7305.000,0.200,1679.000,0.300,1410.000,0.500,1637.000,1.000,723.000,5.000,0
"04/09/08","01:03:43",12828.000,"cc",28340.457,6.00,6,0.100,7350.000,0.200,1777.000,0.300,1391.000,0.500,1641.000,1.000,669.000,5.000,0
"04/09/08","01:03:49",12864.000,"cc",28274.350,6.00,6,0.100,7234.000,0.200,1760.000,0.300,1493.000,0.500,1729.000,1.000,648.000,5.000,0
"04/09/08","01:03:55",13080.000,"cc",28367.936,6.00,6,0.100,7388.000,0.200,1807.000,0.300,1451.000,0.500,1751.000,1.000,683.000,5.000,0
"04/09/08","01:04:01",13165.000,"cc",28224.285,6.00,6,0.100,7368.000,0.200,1855.000,0.300,1499.000,0.500,1752.000,1.000,691.000,5.000,0
"04/09/08","01:04:07",13087.000,"cc",28201.686,6.00,6,0.100,7430.000,0.200,1822.000,0.300,1423.000,0.500,1738.000,1.000,674.000,5.000,0
"04/09/08","01:04:13",13111.000,"cc",28425.113,6.00,6,0.100,7312.000,0.200,1782.000,0.300,1509.000,0.500,1786.000,1.000,722.000,5.000,0
"04/09/08","01:04:19",12975.000,"cc",28372.213,6.00,6,0.100,7399.000,0.200,1789.000,0.300,1418.000,0.500,1690.000,1.000,679.000,5.000,0
"04/09/08","01:04:25",12368.000,"cc",28262.898,6.00,6,0.100,7122.000,0.200,1641.000,0.300,1364.000,0.500,1632.000,1.000,609.000,5.000,0
"04/09/08","01:04:31",12631.000,"cc",28245.877,6.00,6,0.100,7231.000,0.200,1627.000,0.300,1483.000,0.500,1669.000,1.000,621.000,5.000,0
"04/09/08","01:04:37",13068.000,"cc",28289.785,6.00,6,0.100,7411.000,0.200,1736.000,0.300,1465.000,0.500,1726.000,1.000,729.000,5.000,1.000
"04/09/08","01:04:43",12819.000,"cc",28336.434,6.00,6,0.100,7188.000,0.200,1755.000,0.300,1470.000,0.500,1760.000,1.000,645.000,5.000,1.000
"04/09/08","01:04:49",12785.000,"cc",28265.639,6.00,6,0.100,7334.000,0.200,1716.000,0.300,1444.000,0.500,1641.000,1.000,650.000,5.000,0
"04/09/08","01:04:55",12988.000,"cc",28225.156,6.00,6,0.100,7473.000,0.200,1738.000,0.300,1418.000,0.500,1714.000,1.000,645.000,5.000,0
"04/09/08","01:05:01",13735.000,"cc",28341.395,6.00,6,0.100,7779.000,0.200,1809.000,0.300,1551.000,0.500,1852.000,1.000,744.000,5.000,0
"04/09/08","01:05:07",13525.000,"cc",28334.383,6.00,6,0.100,7537.000,0.200,1905.000,0.300,1597.000,0.500,1770.000,1.000,716.000,5.000,0
"04/09/08","01:05:13",13701.000,"cc",28407.322,6.00,6,0.100,7484.000,0.200,1898.000,0.300,1618.000,0.500,1947.000,1.000,754.000,5.000,0
"04/09/08","01:05:19",13550.000,"cc",28294.633,6.00,6,0.100,7475.000,0.200,1909.000,0.300,1577.000,0.500,1884.000,1.000,705.000,5.000,0
"04/09/08","01:05:25",13256.000,"cc",28263.281,6.00,6,0.100,7461.000,0.200,1789.000,0.300,1560.000,0.500,1753.000,1.000,693.000,5.000,0
"04/09/08","01:05:31",13189.000,"cc",28322.322,6.00,6,0.100,7437.000,0.200,1748.000,0.300,1540.000,0.500,1795.000,1.000,668.000,5.000,1.000
"04/09/08","01:05:37",13044.000,"cc",28290.699,6.00,6,0.100,7387.000,0.200,1756.000,0.300,1451.000,0.500,1756.000,1.000,694.000,5.000,0
"04/09/08","01:05:43",13152.000,"cc",28265.172,6.00,6,0.100,7478.000,0.200,1819.000,0.300,1469.000,0.500,1731.000,1.000,655.000,5.000,0
"04/09/08","01:05:49",12450.000,"cc",28234.936,6.00,6,0.100,7039.000,0.200,1735.000,0.300,1426.000,0.500,1658.000,1.000,592.000,5.000,0
"04/09/08","01:05:55",12714.000,"cc",28431.879,6.00,6,0.100,7242.000,0.200,1692.000,0.300,1437.000,0.500,1720.000,1.000,623.000,5.000,0
"04/09/08","01:06:01",12850.000,"cc",28330.760,6.00,6,0.100,7396.000,0.200,1674.000,0.300,1431.000,0.500,1696.000,1.000,653.000,5.000,0
"04/09/08","01:06:07",12635.000,"cc",28302.789,6.00,6,0.100,7075.000,0.200,1716.000,0.300,1465.000,0.500,1695.000,1.000,684.000,5.000,0
"04/09/08","01:06:13",12522.000,"cc",28292.080,6.00,6,0.100,7176.000,0.200,1682.000,0.300,1416.000,0.500,1611.000,1.000,637.000,5.000,0
"04/09/08","01:06:19",12794.000,"cc",28320.850,6.00,6,0.100,7356.000,0.200,1694.000,0.300,1403.000,0.500,1642.000,1.000,699.000,5.000,0
"04/09/08","01:06:25",12893.000,"cc",28343.512,6.00,6,0.100,7321.000,0.200,1704.000,0.300,1474.000,0.500,1680.000,1.000,714.000,5.000,0
"04/09/08","01:06:31",13174.000,"cc",28344.508,6.00,6,0.100,7458.000,0.200,1774.000,0.300,1457.000,0.500,1787.000,1.000,698.000,5.000,0
"04/09/08","01:06:37",13118.000,"cc",28204.434,6.00,6,0.100,7487.000,0.200,1843.000,0.300,1441.000,0.500,1685.000,1.000,662.000,5.000,0
"04/09/08","01:06:43",12879.000,"cc",28318.076,6.00,6,0.100,7420.000,0.200,1758.000,0.300,1443.000,0.500,1624.000,1.000,634.000,5.000,0
"04/09/08","01:06:49",12500.000,"cc",28429.322,6.00,6,0.100,7225.000,0.200,1675.000,0.300,1349.000,0.500,1629.000,1.000,622.000,5.000,0
"04/09/08","01:06:55",12505.000,"cc",28282.813,6.00,6,0.100,7182.000,0.200,1771.000,0.300,1350.000,0.500,1587.000,1.000,615.000,5.000,0
"04/09/08","01:07:01",13136.000,"cc",28254.350,6.00,6,0.100,7606.000,0.200,1730.000,0.300,1488.000,0.500,1676.000,1.000,636.000,5.000,0
"04/09/08","01:07:07",12618.000,"cc",28334.242,6.00,6,0.100,7247.000,0.200,1666.000,0.300,1407.000,0.500,1641.000,1.000,657.000,5.000,0
"04/09/08","01:07:13",12650.000,"cc",28409.811,6.00,6,0.100,7327.000,0.200,1680.000,0.300,1341.000,0.500,1635.000,1.000,667.000,5.000,0
"04/09/08","01:07:19",12781.000,"cc",28309.246,6.00,6,0.100,7186.000,0.200,1738.000,0.300,1494.000,0.500,1723.000,1.000,640.000,5.000,0
"04/09/08","01:07:25",13012.000,"cc",28292.223,6.00,6,0.100,7393.000,0.200,1857.000,0.300,1449.000,0.500,1633.000,1.000,680.000,5.000,0
"04/09/08","01:07:31",12604.000,"cc",28209.666,6.00,6,0.100,7147.000,0.200,1680.000,0.300,1441.000,0.500,1670.000,1.000,666.000,5.000,0
"04/09/08","01:07:37",12351.000,"cc",28436.988,6.00,6,0.100,7132.000,0.200,1631.000,0.300,1316.000,0.500,1597.000,1.000,675.000,5.000,0
"04/09/08","01:07:43",12390.000,"cc",28263.455,6.00,6,0.100,7136.000,0.200,1636.000,0.300,1341.000,0.500,1637.000,1.000,640.000,5.000,0
"04/09/08","01:07:49",12346.000,"cc",28334.508,6.00,6,0.100,7090.000,0.200,1683.000,0.300,1349.000,0.500,1634.000,1.000,590.000,5.000,0
"04/09/08","01:07:55",12631.000,"cc",28288.994,6.00,6,0.100,7306.000,0.200,1655.000,0.300,1345.000,0.500,1688.000,1.000,637.000,5.000,0
"04/09/08","01:08:01",12572.000,"cc",28359.232,6.00,6,0.100,7388.000,0.200,1609.000,0.300,1336.000,0.500,1617.000,1.000,622.000,5.000,0
"04/09/08","01:08:07",12282.000,"cc",28240.531,6.00,6,0.100,7107.000,0.200,1655.000,0.300,1363.000,0.500,1531.000,1.000,626.000,5.000,0
"04/09/08","01:08:13",12547.000,"cc",28268.035,6.00,6,0.100,7234.000,0.200,1704.000,0.300,1387.000,0.500,1572.000,1.000,650.000,5.000,0
"04/09/08","01:08:19",12490.000,"cc",28365.111,6.00,6,0.100,7163.000,0.200,1685.000,0.300,1366.000,0.500,1607.000,1.000,669.000,5.000,0
"04/09/08","01:08:25",12725.000,"cc",28377.699,6.00,6,0.100,7279.000,0.200,1751.000,0.300,1453.000,0.500,1605.000,1.000,637.000,5.000,0
"04/09/08","01:08:31",12659.000,"cc",28352.061,6.00,6,0.100,7226.000,0.200,1693.000,0.300,1414.000,0.500,1675.000,1.000,651.000,5.000,0
"04/09/08","01:08:37",12103.000,"cc",28314.842,6.00,6,0.100,6868.000,0.200,1564.000,0.300,1446.000,0.500,1605.000,1.000,620.000,5.000,0
"04/09/08","01:08:43",12509.000,"cc",28345.768,6.00,6,0.100,7083.000,0.200,1703.000,0.300,1426.000,0.500,1625.000,1.000,672.000,5.000,0
"04/09/08","01:08:49",12968.000,"cc",28190.348,6.00,6,0.100,7392.000,0.200,1692.000,0.300,1436.000,0.500,1754.000,1.000,694.000,5.000,0
"04/09/08","01:08:55",13756.000,"cc",28335.369,6.00,6,0.100,7590.000,0.200,2006.000,0.300,1543.000,0.500,1906.000,1.000,711.000,5.000,0
"04/09/08","01:09:01",13314.000,"cc",28300.416,6.00,6,0.100,7463.000,0.200,1772.000,0.300,1528.000,0.500,1822.000,1.000,729.000,5.000,0
"04/09/08","01:09:07",12751.000,"cc",28240.182,6.00,6,0.100,7272.000,0.200,1714.000,0.300,1435.000,0.500,1683.000,1.000,647.000,5.000,0
"04/09/08","01:09:13",12785.000,"cc",28464.227,6.00,6,0.100,7383.000,0.200,1728.000,0.300,1417.000,0.500,1639.000,1.000,618.000,5.000,0
"04/09/08","01:09:19",12470.000,"cc",28314.102,6.00,6,0.100,7090.000,0.200,1688.000,0.300,1450.000,0.500,1606.000,1.000,636.000,5.000,0
"04/09/08","01:09:25",12379.000,"cc",28361.582,6.00,6,0.100,7153.000,0.200,1654.000,0.300,1381.000,0.500,1524.000,1.000,667.000,5.000,0
"04/09/08","01:09:31",12235.000,"cc",28289.471,6.00,6,0.100,7163.000,0.200,1526.000,0.300,1329.000,0.500,1601.000,1.000,616.000,5.000,0
"04/09/08","01:09:37",11957.000,"cc",28368.764,6.00,6,0.100,6928.000,0.200,1573.000,0.300,1294.000,0.500,1583.000,1.000,579.000,5.000,0
"04/09/08","01:09:43",12040.000,"cc",28341.070,6.00,6,0.100,6949.000,0.200,1560.000,0.300,1351.000,0.500,1536.000,1.000,644.000,5.000,0
"04/09/08","01:09:49",12071.000,"cc",28219.227,6.00,6,0.100,7008.000,0.200,1573.000,0.300,1320.000,0.500,1545.000,1.000,625.000,5.000,0
"04/09/08","01:09:55",11916.000,"cc",28236.910,6.00,6,0.100,6879.000,0.200,1588.000,0.300,1308.000,0.500,1539.000,1.000,602.000,5.000,0
"04/09/08","01:10:01",12406.000,"cc",28235.232,6.00,6,0.100,7103.000,0.200,1654.000,0.300,1374.000,0.500,1673.000,1.000,602.000,5.000,0
"04/09/08","01:10:07",12256.000,"cc",28321.424,6.00,6,0.100,7022.000,0.200,1666.000,0.300,1367.000,0.500,1571.000,1.000,630.000,5.000,0
"04/09/08","01:10:13",12507.000,"cc",28320.875,6.00,6,0.100,7197.000,0.200,1609.000,0.300,1402.000,0.500,1647.000,1.000,652.000,5.000,0
"04/09/08","01:10:19",12706.000,"cc",28337.652,6.00,6,0.100,7235.000,0.200,1704.000,0.300,1411.000,0.500,1677.000,1.000,679.000,5.000,0
"04/09/08","01:10:25",12690.000,"cc",28307.313,6.00,6,0.100,7188.000,0.200,1706.000,0.300,1420.000,0.500,1704.000,1.000,672.000,5.000,0
"04/09/08","01:10:31",12179.000,"cc",28357.674,6.00,6,0.100,6992.000,0.200,1626.000,0.300,1314.000,0.500,1641.000,1.000,605.000,5.000,1.000
"04/09/08","01:10:37",12706.000,"cc",28374.115,6.00,6,0.100,7376.000,0.200,1640.000,0.300,1369.000,0.500,1679.000,1.000,642.000,5.000,0
"04/09/08","01:10:43",12486.000,"cc",28251.666,6.00,6,0.100,7100.000,0.200,1672.000,0.300,1404.000,0.500,1643.000,1.000,667.000,5.000,0
"04/09/08","01:10:49",12582.000,"cc",28322.539,6.00,6,0.100,7136.000,0.200,1808.000,0.300,1374.000,0.500,1605.000,1.000,659.000,5.000,0
"04/09/08","01:10:55",12790.000,"cc",28348.182,6.00,6,0.100,7305.000,0.200,1706.000,0.300,1421.000,0.500,1645.000,1.000,713.000,5.000,0
"04/09/08","01:11:01",12787.000,"cc",28271.461,6.00,6,0.100,7226.000,0.200,1746.000,0.300,1423.000,0.500,1677.000,1.000,715.000,5.000,0
"04/09/08","01:11:07",12521.000,"cc",28199.615,6.00,6,0.100,7161.000,0.200,1690.000,0.300,1409.000,0.500,1604.000,1.000,657.000,5.000,0
"04/09/08","01:11:13",12574.000,"cc",28348.881,6.00,6,0.100,7230.000,0.200,1616.000,0.300,1432.000,0.500,1654.000,1.000,641.000,5.000,1.000
"04/09/08","01:11:19",12305.000,"cc",28355.887,6.00,6,0.100,7024.000,0.200,1678.000,0.300,1383.000,0.500,1613.000,1.000,607.000,5.000,0
"04/09/08","01:11:25",12286.000,"cc",28282.389,6.00,6,0.100,7170.000,0.200,1661.000,0.300,1313.000,0.500,1529.000,1.000,613.000,5.000,0
"04/09/08","01:11:31",12508.000,"cc",28301.186,6.00,6,0.100,7329.000,0.200,1662.000,0.300,1368.000,0.500,1524.000,1.000,625.000,5.000,0
"04/09/08","01:11:37",12885.000,"cc",28307.451,6.00,6,0.100,7377.000,0.200,1712.000,0.300,1415.000,0.500,1716.000,1.000,664.000,5.000,1.000
"04/09/08","01:11:43",12673.000,"cc",28386.381,6.00,6,0.100,7154.000,0.200,1759.000,0.300,1433.000,0.500,1692.000,1.000,635.000,5.000,0
"04/09/08","01:11:49",12612.000,"cc",28363.406,6.00,6,0.100,7178.000,0.200,1638.000,0.300,1404.000,0.500,1706.000,1.000,686.000,5.000,0
"04/09/08","01:11:55",12675.000,"cc",28244.262,6.00,6,0.100,7206.000,0.200,1723.000,0.300,1377.000,0.500,1667.000,1.000,702.000,5.000,0
"04/09/08","01:12:01",12932.000,"cc",28233.328,6.00,6,0.100,7359.000,0.200,1758.000,0.300,1472.000,0.500,1684.000,1.000,659.000,5.000,0
"04/09/08","01:12:07",12130.000,"cc",28308.940,6.00,6,0.100,6924.000,0.200,1699.000,0.300,1318.000,0.500,1572.000,1.000,617.000,5.000,0
"04/09/08","01:12:13",12388.000,"cc",28326.352,6.00,6,0.100,6970.000,0.200,1670.000,0.300,1449.000,0.500,1638.000,1.000,661.000,5.000,0
"04/09/08","01:12:19",12314.000,"cc",28242.549,6.00,6,0.100,7091.000,0.200,1707.000,0.300,1395.000,0.500,1536.000,1.000,585.000,5.000,0
"04/09/08","01:12:25",12264.000,"cc",28322.115,6.00,6,0.100,7001.000,0.200,1633.000,0.300,1406.000,0.500,1605.000,1.000,619.000,5.000,0
"04/09/08","01:12:31",12325.000,"cc",28302.490,6.00,6,0.100,7092.000,0.200,1658.000,0.300,1346.000,0.500,1608.000,1.000,621.000,5.000,0
"04/09/08","01:12:37",12042.000,"cc",28291.801,6.00,6,0.100,7005.000,0.200,1570.000,0.300,1327.000,0.500,1538.000,1.000,602.000,5.000,0
"04/09/08","01:12:43",12451.000,"cc",28278.471,6.00,6,0.100,7064.000,0.200,1765.000,0.300,1412.000,0.500,1579.000,1.000,631.000,5.000,0
"04/09/08","01:12:49",11793.000,"cc",28441.619,6.00,6,0.100,6846.000,0.200,1608.000,0.300,1268.000,0.500,1499.000,1.000,572.000,5.000,0
"04/09/08","01:12:55",11743.000,"cc",28287.256,6.00,6,0.100,6898.000,0.200,1460.000,0.300,1288.000,0.500,1481.000,1.000,616.000,5.000,0
"04/09/08","01:13:01",11663.000,"cc",28330.834,6.00,6,0.100,6887.000,0.200,1561.000,0.300,1198.000,0.500,1408.000,1.000,609.000,5.000,0
"04/09/08","01:13:07",11744.000,"cc",28373.203,6.00,6,0.100,6842.000,0.200,1512.000,0.300,1288.000,0.500,1463.000,1.000,639.000,5.000,0
"04/09/08","01:13:13",11924.000,"cc",28314.395,6.00,6,0.100,6899.000,0.200,1603.000,0.300,1320.000,0.500,1472.000,1.000,630.000,5.000,0
"04/09/08","01:13:19",11880.000,"cc",28237.455,6.00,6,0.100,6803.000,0.200,1594.000,0.300,1300.000,0.500,1570.000,1.000,613.000,5.000,0
"04/09/08","01:13:25",12082.000,"cc",28247.621,6.00,6,0.100,6973.000,0.200,1629.000,0.300,1303.000,0.500,1512.000,1.000,665.000,5.000,0
"04/09/08","01:13:31",11870.000,"cc",28227.027,6.00,6,0.100,6854.000,0.200,1560.000,0.300,1286.000,0.500,1595.000,1.000,575.000,5.000,0
"04/09/08","01:13:37",11715.000,"cc",28269.197,6.00,6,0.100,6804.000,0.200,1524.000,0.300,1246.000,0.500,1515.000,1.000,626.000,5.000,0
"04/09/08","01:13:43",11716.000,"cc",28391.609,6.00,6,0.100,6793.000,0.200,1566.000,0.300,1319.000,0.500,1434.000,1.000,604.000,5.000,0
"04/09/08","01:13:49",11633.000,"cc",28364.633,6.00,6,0.100,6741.000,0.200,1537.000,0.300,1259.000,0.500,1520.000,1.000,576.000,5.000,0
"04/09/08","01:13:55",11490.000,"cc",28398.242,6.00,6,0.100,6740.000,0.200,1534.000,0.300,1252.000,0.500,1412.000,1.000,552.000,5.000,0
"04/09/08","01:14:01",11654.000,"cc",28237.363,6.00,6,0.100,6844.000,0.200,1512.000,0.300,1244.000,0.500,1456.000,1.000,598.000,5.000,0
"04/09/08","01:14:07",11978.000,"cc",28299.949,6.00,6,0.100,7006.000,0.200,1582.000,0.300,1280.000,0.500,1526.000,1.000,584.000,5.000,0
"04/09/08","01:14:13",11768.000,"cc",28390.719,6.00,6,0.100,6792.000,0.200,1552.000,0.300,1300.000,0.500,1569.000,1.000,555.000,5.000,0
"04/09/08","01:14:19",11731.000,"cc",28214.994,6.00,6,0.100,6747.000,0.200,1539.000,0.300,1300.000,0.500,1537.000,1.000,608.000,5.000,0
"04/09/08","01:14:25",11955.000,"cc",28275.766,6.00,6,0.100,6903.000,0.200,1568.000,0.300,1350.000,0.500,1542.000,1.000,592.000,5.000,0
"04/09/08","01:14:31",11804.000,"cc",28326.654,6.00,6,0.100,6793.000,0.200,1619.000,0.300,1344.000,0.500,1489.000,1.000,559.000,5.000,0
"04/09/08","01:14:37",12102.000,"cc",28337.973,6.00,6,0.100,7030.000,0.200,1591.000,0.300,1279.000,0.500,1529.000,1.000,673.000,5.000,0
"04/09/08","01:14:43",11957.000,"cc",28339.322,6.00,6,0.100,6837.000,0.200,1625.000,0.300,1350.000,0.500,1557.000,1.000,588.000,5.000,0
"04/09/08","01:14:49",11916.000,"cc",28267.445,6.00,6,0.100,6897.000,0.200,1560.000,0.300,1297.000,0.500,1565.000,1.000,597.000,5.000,0
"04/09/08","01:14:55",12000.000,"cc",28315.299,6.00,6,0.100,6848.000,0.200,1620.000,0.300,1343.000,0.500,1563.000,1.000,626.000,5.000,0
"04/09/08","01:15:01",12102.000,"cc",28333.690,6.00,6,0.100,6931.000,0.200,1611.000,0.300,1415.000,0.500,1513.000,1.000,632.000,5.000,0
"04/09/08","01:15:07",11935.000,"cc",28327.945,6.00,6,0.100,6875.000,0.200,1550.000,0.300,1324.000,0.500,1603.000,1.000,583.000,5.000,0
"04/09/08","01:15:13",11720.000,"cc",28340.943,6.00,6,0.100,6745.000,0.200,1610.000,0.300,1274.000,0.500,1474.000,1.000,617.000,5.000,0
"04/09/08","01:15:19",12011.000,"cc",28234.311,6.00,6,0.100,6925.000,0.200,1570.000,0.300,1300.000,0.500,1599.000,1.000,617.000,5.000,0
"04/09/08","01:15:25",12157.000,"cc",28311.137,6.00,6,0.100,6928.000,0.200,1603.000,0.300,1325.000,0.500,1645.000,1.000,656.000,5.000,0
"04/09/08","01:15:31",12325.000,"cc",28357.631,6.00,6,0.100,6904.000,0.200,1652.000,0.300,1431.000,0.500,1675.000,1.000,663.000,5.000,0
"04/09/08","01:15:37",12475.000,"cc",28305.516,6.00,6,0.100,7123.000,0.200,1684.000,0.300,1374.000,0.500,1631.000,1.000,663.000,5.000,0
"04/09/08","01:15:43",12233.000,"cc",28288.113,6.00,6,0.100,6930.000,0.200,1691.000,0.300,1369.000,0.500,1611.000,1.000,632.000,5.000,0
"04/09/08","01:15:49",12316.000,"cc",28379.057,6.00,6,0.100,6978.000,0.200,1699.000,0.300,1413.000,0.500,1608.000,1.000,618.000,5.000,0
"04/09/08","01:15:55",12140.000,"cc",28282.709,6.00,6,0.100,6942.000,0.200,1664.000,0.300,1328.000,0.500,1608.000,1.000,598.000,5.000,0
"04/09/08","01:16:01",11893.000,"cc",28288.350,6.00,6,0.100,6843.000,0.200,1506.000,0.300,1292.000,0.500,1598.000,1.000,654.000,5.000,0
"04/09/08","01:16:07",11935.000,"cc",28356.805,6.00,6,0.100,6899.000,0.200,1640.000,0.300,1290.000,0.500,1524.000,1.000,582.000,5.000,0
"04/09/08","01:16:13",12038.000,"cc",28287.773,6.00,6,0.100,6966.000,0.200,1620.000,0.300,1326.000,0.500,1528.000,1.000,598.000,5.000,0
"04/09/08","01:16:19",12222.000,"cc",28366.996,6.00,6,0.100,7036.000,0.200,1657.000,0.300,1378.000,0.500,1529.000,1.000,622.000,5.000,0
"04/09/08","01:16:25",12110.000,"cc",28270.004,6.00,6,0.100,7002.000,0.200,1590.000,0.300,1335.000,0.500,1579.000,1.000,604.000,5.000,0